Belleville, IL

12:19 AM CDT on March 27, 2017 (GMT -0500)
Scott Air Force Base-Midamerica

Weather History for KBLV - March, 2014

Change the Weather History Date:

Tuesday, March 11, 2014

  Actual Average Record
Temperature  
Mean Temperature 61 °F -  
Max Temperature 79 °F 55 °F 81 °F (1967)
Min Temperature 45 °F 35 °F 12 °F (1998)
Degree Days  
Heating Degree Days 4    
Growing Degree Days 11 (Base 50)    
Moisture  
Dew Point 48 °F    
Average Humidity 65    
Maximum Humidity 95    
Minimum Humidity 29    
Precipitation  
Precipitation 0.00 in - - ()
Sea Level Pressure  
Sea Level Pressure 29.59 in    
Wind  
Wind Speed 9 mph (South)    
Max Wind Speed 21 mph    
Max Gust Speed 26 mph    
Visibility 10 miles    
Events      
Averages and records for this station are not official NWS values.
T = Trace of Precipitation, MM = Missing Value Source: NWS Daily Summary

Daily Weather History Graph

Daily Weather History Graph

Search for Another Location

Airport or City:

Trip Planner

Search our weather history database for the weather conditions in past years. The results will help you decide how hot, cold, wet, or windy it might be!

Date:

Astronomy

Mar. 11, 2014 Rise Set
Actual Time 7:16 AM CDT 7:02 PM CDT
Civil Twilight 6:50 AM CDT 7:28 PM CDT
Nautical Twilight 6:19 AM CDT 7:59 PM CDT
Astronomical Twilight 5:48 AM CDT 8:30 PM CDT
Moon 2:41 PM CDT (3/11) 4:07 AM CDT (3/11)
Length of Visible Light 12h 38m
Length of Day
11h 45m
Waxing Gibbous, 78% of the Moon is Illuminated
Mar 11
Waxing Gibbous
Mar 16
Full
Mar 23
Last Quarter
Mar 30
New
Apr 7
First Quarter

Hourly Weather History & Observations

Time (CDT) Temp. Windchill Dew Point Humidity Pressure Visibility Wind Dir Wind Speed Gust Speed Precip Events Conditions
12:58 AM 52.5 °F - 46.9 °F 81% 29.72 in 10.0 mi SSW 8.1 mph - N/A   Clear
1:58 AM 49.3 °F - 45.5 °F 87% 29.72 in 10.0 mi South 5.8 mph - N/A   Scattered Clouds
2:58 AM 47.7 °F - 45.3 °F 92% 29.72 in 10.0 mi South 5.8 mph - N/A   Clear
3:58 AM 45.1 °F 41.4 °F 43.7 °F 95% 29.69 in 10.0 mi South 6.9 mph - N/A   Partly Cloudy
4:58 AM 45.7 °F 42.7 °F 43.7 °F 93% 29.68 in 10.0 mi South 5.8 mph - N/A   Overcast
5:58 AM 47.3 °F - 42.3 °F 83% 29.68 in 10.0 mi South 5.8 mph - N/A   Overcast
6:58 AM 46.6 °F - 40.8 °F 80% 29.68 in 10.0 mi SSW 2.3 mph - N/A   Partly Cloudy
7:58 AM 46.4 °F - 40.3 °F 79% 29.68 in 10.0 mi SSE 2.3 mph - N/A   Scattered Clouds
8:58 AM 53.1 °F - 43.2 °F 69% 29.68 in 10.0 mi South 8.1 mph - N/A   Clear
9:58 AM 62.6 °F - 41.2 °F 45% 29.68 in 10.0 mi SSW 10.4 mph - N/A   Clear
10:58 AM 67.6 °F - 44.1 °F 43% 29.66 in 10.0 mi SW 5.8 mph - N/A   Clear
11:58 AM 73.2 °F - 45.9 °F 38% 29.64 in 10.0 mi SSW 9.2 mph - N/A   Clear
12:58 PM 76.5 °F - 43.5 °F 31% 29.61 in 10.0 mi SSE 9.2 mph - N/A   Clear
1:58 PM 77.2 °F - 43.7 °F 30% 29.57 in 10.0 mi South 11.5 mph 19.6 mph N/A   Clear
2:58 PM 76.6 °F - 41.7 °F 29% 29.55 in 10.0 mi South 8.1 mph - N/A   Partly Cloudy
3:59 PM 75.0 °F - 46.2 °F 36% 29.53 in 10.0 mi SE 13.8 mph 19.6 mph N/A   Partly Cloudy
4:58 PM 76.5 °F - 46.9 °F 35% 29.49 in 10.0 mi SSE 15.0 mph 20.7 mph N/A   Partly Cloudy
5:58 PM 73.0 °F - 49.3 °F 43% 29.50 in 10.0 mi SSE 15.0 mph 26.5 mph N/A   Partly Cloudy
6:58 PM 69.4 °F - 53.4 °F 57% 29.49 in 10.0 mi SSE 17.3 mph - N/A   Clear
7:58 PM 67.3 °F - 56.8 °F 69% 29.49 in 10.0 mi SSE 18.4 mph 25.3 mph N/A   Partly Cloudy
8:58 PM 66.2 °F - 58.1 °F 75% 29.49 in 10.0 mi SSE 15.0 mph - N/A   Partly Cloudy
9:58 PM 64.9 °F - 58.5 °F 79% 29.47 in 10.0 mi South 12.7 mph - N/A   Scattered Clouds
10:58 PM 64.8 °F - 57.2 °F 76% 29.44 in 10.0 mi South 15.0 mph - N/A   Mostly Cloudy
11:34 PM 64.4 °F - 57.2 °F 77% 29.44 in 10.0 mi WSW 15.0 mph - N/A   Mostly Cloudy
11:36 PM 64.4 °F - 57.2 °F 77% 29.45 in 10.0 mi WNW 20.7 mph 26.5 mph N/A   Mostly Cloudy
11:58 PM 55.4 °F - 53.1 °F 92% 29.46 in 10.0 mi NNW 15.0 mph 25.3 mph N/A   Mostly Cloudy